TGW510 WSSS-VVDN

Flight info

Callsign TGW510
Flight time N/A
Altitude 36000
Route VMR6A VMR M771 DUDIS/K0850F360 L644 CN/K0848F370 L644 AC/K0807F270 W1 BMT Q1 SADIN SADIN1D
Aircraft A320/M-SDFGHIRWYZ/LB1

Departure

Time N/A
Airport Singapore Changi Airport (WSSS)

Arrival

Time 2026-05-07 02:35
Airport Da Nang International Airport (VVDN)
Time Latitude Longitude Altitude Speed Heading
2026-05-07 02:18 16.18246 108.72832 28753 ft 354 kts 100°
2026-05-07 02:18 16.17470 108.75219 28408 ft 348 kts 122°
2026-05-07 02:18 16.15922 108.77111 28013 ft 343 kts 144°
2026-05-07 02:18 16.13835 108.78241 27599 ft 337 kts 168°
2026-05-07 02:19 16.11532 108.78608 27126 ft 336 kts 177°
2026-05-07 02:19 16.09165 108.78780 26428 ft 346 kts 178°
2026-05-07 02:19 16.06726 108.78925 25722 ft 356 kts 178°
2026-05-07 02:19 16.04230 108.79065 25100 ft 362 kts 178°
2026-05-07 02:20 16.01710 108.79201 24674 ft 362 kts 178°
2026-05-07 02:20 15.99198 108.79331 24309 ft 360 kts 178°
2026-05-07 02:20 15.96705 108.79304 23955 ft 353 kts 191°
2026-05-07 02:20 15.94462 108.78585 23763 ft 332 kts 208°
2026-05-07 02:21 15.92590 108.77272 23293 ft 323 kts 225°
2026-05-07 02:21 15.91199 108.75441 22465 ft 324 kts 243°
2026-05-07 02:21 15.90421 108.73247 21759 ft 323 kts 260°
2026-05-07 02:21 15.90229 108.70932 21098 ft 321 kts 268°
2026-05-07 02:22 15.90134 108.68623 20462 ft 320 kts 267°
2026-05-07 02:22 15.90028 108.66324 19867 ft 318 kts 267°
2026-05-07 02:22 15.89920 108.64060 19301 ft 315 kts 267°
2026-05-07 02:22 15.89812 108.61792 18734 ft 314 kts 267°
2026-05-07 02:23 15.89703 108.59508 17964 ft 319 kts 267°
2026-05-07 02:23 15.89597 108.57190 17104 ft 323 kts 267°
2026-05-07 02:23 15.89489 108.54845 16259 ft 327 kts 267°
2026-05-07 02:24 15.89156 108.47529 13768 ft 334 kts 267°
2026-05-07 02:24 15.89044 108.45117 12879 ft 335 kts 267°
2026-05-07 02:24 15.88933 108.42699 12008 ft 335 kts 267°
2026-05-07 02:25 15.88823 108.40275 11156 ft 334 kts 267°
2026-05-07 02:25 15.88715 108.37895 10343 ft 334 kts 267°
2026-05-07 02:25 15.88605 108.35489 9505 ft 333 kts 268°
2026-05-07 02:25 15.88494 108.33089 8631 ft 332 kts 267°
2026-05-07 02:26 15.88238 108.30710 7775 ft 329 kts 254°
2026-05-07 02:26 15.87205 108.28644 7324 ft 314 kts 228°
2026-05-07 02:26 15.85548 108.27335 7196 ft 289 kts 202°
2026-05-07 02:26 15.83688 108.26918 7081 ft 266 kts 182°
2026-05-07 02:27 15.81895 108.26883 6932 ft 249 kts 178°
2026-05-07 02:27 15.80226 108.27098 6641 ft 237 kts 166°
2026-05-07 02:27 15.78703 108.27713 6209 ft 233 kts 141°
2026-05-07 02:27 15.77725 108.29002 5787 ft 227 kts 108°
2026-05-07 02:28 15.77563 108.30608 5335 ft 225 kts 83°
2026-05-07 02:28 15.77915 108.32187 4883 ft 225 kts 64°
2026-05-07 02:28 15.78872 108.33460 4465 ft 226 kts 37°
2026-05-07 02:28 15.80310 108.34093 4336 ft 232 kts
2026-05-07 02:29 15.81918 108.33982 4204 ft 234 kts 351°
2026-05-07 02:29 15.83524 108.33691 4087 ft 234 kts 351°
2026-05-07 02:29 15.85123 108.33401 3958 ft 234 kts 351°
2026-05-07 02:29 15.86689 108.32969 3999 ft 234 kts 332°
2026-05-07 02:30 15.87852 108.31815 4002 ft 234 kts 297°
2026-05-07 02:30 15.88216 108.30199 3880 ft 232 kts 264°
2026-05-07 02:30 15.88041 108.28562 3748 ft 223 kts 261°
2026-05-07 02:30 15.87864 108.26993 3628 ft 215 kts 261°
2026-05-07 02:31 15.87826 108.25517 3557 ft 201 kts 277°
2026-05-07 02:31 15.88205 108.24122 3179 ft 206 kts 294°
2026-05-07 02:31 15.89034 108.22896 2741 ft 207 kts 315°
2026-05-07 02:31 15.90211 108.22060 2495 ft 205 kts 335°
2026-05-07 02:32 15.91590 108.21697 2246 ft 204 kts 353°
2026-05-07 02:32 15.92970 108.21500 1975 ft 195 kts 352°
2026-05-07 02:32 15.94293 108.21304 1751 ft 190 kts 352°
2026-05-07 02:32 15.95567 108.21119 1496 ft 181 kts 351°
2026-05-07 02:33 15.96768 108.20945 1280 ft 170 kts 353°
2026-05-07 02:33 15.97904 108.20779 1077 ft 158 kts 351°
2026-05-07 02:33 15.98962 108.20625 897 ft 148 kts 352°
2026-05-07 02:33 15.99974 108.20487 675 ft 148 kts 353°
2026-05-07 02:34 16.00986 108.20364 587 ft 147 kts 352°
2026-05-07 02:34 16.02004 108.20210 397 ft 147 kts 351°
2026-05-07 02:34 16.03007 108.20045 162 ft 146 kts 352°
2026-05-07 02:34 16.04005 108.19900 38 ft 140 kts 352°
2026-05-07 02:35 16.04854 108.19775 35 ft 96 kts 352°
2026-05-07 02:35 16.05305 108.19704 32 ft 40 kts 352°
2026-05-07 02:35 16.05541 108.19671 31 ft 26 kts 351°
2026-05-07 02:35 16.05664 108.19653 32 ft 10 kts 354°
2026-05-07 02:36 16.05723 108.19694 32 ft 12 kts 68°
2026-05-07 02:36 16.05731 108.19759 32 ft 9 kts 83°
2026-05-07 02:36 16.05739 108.19832 32 ft 11 kts 83°
2026-05-07 02:36 16.05749 108.19913 33 ft 13 kts 80°
2026-05-07 02:37 16.05753 108.19968 33 ft 6 kts 115°
2026-05-07 02:37 16.05726 108.19998 33 ft 3 kts 118°
2026-05-07 02:37 16.05725 108.20026 33 ft 5 kts 78°
2026-05-07 02:37 16.05735 108.20071 33 ft 8 kts 77°
2026-05-07 02:38 16.05739 108.20108 33 ft 2 kts 86°
2026-05-07 02:38 16.05741 108.20121 33 ft 0 kts 82°